Welcome to the New NWS' Forecast!
Most changes are behind the scenes, but click here for differences you might notice.
Latest weather observations around

Missoula, Missoula International Airport (KMSO)

Using English Units (Switch to International System of Units)
Date/ Time (MDT) Wind (mph) Vis. (mi) Weather Sky Cond. Temp (°F) Rel. Humidity Wind Chill (°F) Heat Index (°F) Pressure Precip. (in)
Air Dwpt 6 hour Altimeter (inHg) Sea level (inHg) 1 hr 3 hr 6 hr
Max Min
Oct 23 01:53 Calm 10 Clear CLR 35 29     78%     30.06 30.09      
Oct 23 00:53 Calm 10 Clear CLR 38 30     73%     30.05 30.08      
Oct 22 23:53 E 3 10 Clear CLR 40 31     70% 38   30.05 30.09      
Oct 22 22:53 ENE 3   Clear CLR 41 31     67% 39   30.05 30.09      
Oct 22 21:53 Calm   Clear CLR 43 32     65%     30.03 30.08      
Oct 22 20:53 Calm 10 Clear CLR 45 32     60%     30.02 30.07      
Oct 22 20:26 Calm 10 Clear CLR 47 32     56%     30.02        
Oct 22 20:07 NNE 3 1.5 Haze CLR 50 32     50%     30.02        
Oct 22 20:01 NE 5 1 Haze CLR 48 32     54% 46   30.02        
Oct 22 19:58 NNE 5 1.75 Haze CLR 49 32     52% 47   30.02        
Oct 22 19:53 N 3 7 Clear CLR 50 33     52%     30.02 30.07      
Oct 22 19:44 Calm 2.5 Haze CLR 52 33     48%     30.02        
Oct 22 17:53 NW 8 8 Clear CLR 60 31     33%     30.02 30.04      
Oct 22 16:53 WNW 8 10 Clear CLR 64 32     30%     30.03 30.04      
Oct 22 15:53 WNW 5 10 Clear CLR 63 32     31%     30.04 30.05      
Oct 22 14:53 WNW 3 10 Clear CLR 60 31     33%     30.07 30.09      
Oct 22 13:53 Calm 10 Clear CLR 56 31     38%     30.1 30.13      
Oct 22 12:53 Calm 10 Clear CLR 52 31     44%     30.13 30.16      
Oct 22 11:53 Calm 10 Clear CLR 47 32     56%     30.15 30.19      
Oct 22 10:53 Calm 10 Clear CLR 41 32     70%     30.17 30.22      
Oct 22 09:53 Calm 10 Clear   37 31     78%     30.18 30.23      
Oct 22 08:53 Calm 10 Clear CLR 32 26     78%     30.17 30.23      
Oct 22 07:53 Calm 10 Clear CLR 30 26     85%     30.16 30.21      
Oct 22 06:53 Calm 10 Clear CLR 31 26     82%     30.15 30.19      
Oct 22 05:53 Calm 10 Clear CLR 31 26     82%     30.15 30.17      
Oct 22 04:53 Calm 10 Clear CLR 31 26     82%     30.14 30.16      
Oct 22 03:53 Calm 10 Clear CLR 34 27     75%     30.14 30.15      
Oct 22 02:53 Calm 10 Clear CLR 35 28     75%     30.13 30.15      
Oct 22 01:53 WNW 3 10 Clear CLR 35 28     75% 32   30.12 30.15      
Oct 22 00:53 Calm 10 Clear CLR 36 29     75%     30.11 30.14      
Oct 21 23:53 Calm 10 Clear CLR 40 30     67%     30.1 30.13      
Oct 21 22:53 Calm 10 Clear CLR 41 31     67%     30.09 30.13      
Oct 21 21:53 Calm 10 Clear CLR 45 31     58%     30.07 30.12      
Oct 21 20:53 NE 3 10 Clear CLR 47 32     56% 46   30.06 30.11      
Oct 21 19:53 Calm 10 Clear CLR 49 32     52%     30.05 30.1      
Oct 21 18:53 3 10 Clear CLR 56 31     38%     30.03 30.07      
Oct 21 17:53 Calm 10 Clear CLR 62 33     34%     30.03 30.05      
Oct 21 16:53 SW 5 10 Clear CLR 64 32     30%     30.03 30.05      
Oct 21 15:53 Calm 10 Clear CLR 64 31     29%     30.04 30.06      
Oct 21 14:53 Calm 10 Clear CLR 61 31     32%     30.07 30.09      
Oct 21 13:53 Calm 10 Clear CLR 57 30     36%     30.09 30.11      
Oct 21 12:53 Calm 10 Clear CLR 52 30     43%     30.11 30.14      
Oct 21 11:53 Calm 10 Clear CLR 47 30     52%     30.14 30.18      
Oct 21 10:53 Calm 10 Clear CLR 41 30     65%     30.16 30.2      
Oct 21 09:53 Calm 10 Clear CLR 36 30     79%     30.17 30.22      
Oct 21 08:53 Calm 10 Clear CLR 31 25     78%     30.17 30.23      
Oct 21 07:53 W 3 10 Clear CLR 28 24     85% 24   30.16 30.22      
Oct 21 06:53 N 3 10 Clear CLR 31 25     78% 28   30.16 30.19      
Oct 21 05:53 NNW 5 10 Clear CLR 30 25     81% 25   30.16 30.19      
Oct 21 04:53 Calm 10 Clear CLR 32 25     75%     30.16 30.18      
Oct 21 03:53 Calm 10 Clear CLR 33 25     72%     30.16 30.17      
Oct 21 02:53 Calm 10 Clear CLR 33 26     75%     30.16 30.19      
Oct 21 01:53 W 3 10 Clear CLR 37 28     70% 35   30.16 30.19      
Oct 21 00:53 Calm 10 Clear CLR 37 28     70%     30.16 30.19      
Oct 20 23:53 Calm 10 Clear CLR 38 29     70%     30.15 30.19      
Oct 20 22:53 ENE 3 10 Clear CLR 40 30     67% 38   30.14 30.19      
Oct 20 21:53 Calm 10 Clear CLR 43 30     60%     30.14 30.19      
Oct 20 20:53 Calm 10 Clear CLR 44 32     62%     30.13 30.18      
Oct 20 19:53 Calm 10 Clear CLR 46 32     58%     30.12 30.18      
Oct 20 18:53 Calm 10 Clear CLR 56 34     43%     30.12 30.15      
Oct 20 17:53 SW 3 10 Clear CLR 63 33     33%     30.12 30.13      
Oct 20 16:53 SSE 3 10 Clear CLR 65 32     29%     30.13 30.15      
Oct 20 15:53 Calm 9 Clear CLR 64 32     30%     30.16 30.17      
Oct 20 14:53 Calm 10 Clear CLR 61 31     32%     30.19 30.2      
Oct 20 13:53 Calm 10 Clear CLR 57 31     37%     30.22 30.24      
Oct 20 12:53 Calm 10 Clear CLR 52 30     43%     30.26 30.29      
Oct 20 11:53 3 10 Clear CLR 47 32     56% 46   30.29 30.34      
Oct 20 10:53 Calm 10 Clear CLR 43 32     65%     30.31 30.35      
Oct 20 09:53 Calm 10 Clear CLR 37 32     82%     30.33 30.38      
Oct 20 08:53 SE 3 10 Clear CLR 33 29     85% 30   30.34 30.39      
Oct 20 07:53 Calm 10 Clear CLR 30 26     85%     30.34 30.4      
Oct 20 06:53 Calm 10 Clear CLR 31 27     85%     30.33 30.37      
Oct 20 05:53 Calm 10 Clear CLR 34 28     79%     30.34 30.36      
Oct 20 04:53 Calm 10 Clear CLR 33 27     78%     30.34 30.37      
Oct 20 03:53 Calm 10 Clear CLR 34 28     79%     30.35 30.37      
Oct 20 02:53 Calm 10 Clear CLR 36 29     75%     30.35 30.38      
Oct 20 01:53 Calm 10 Clear CLR 36 29     75%     30.36 30.39      
Oct 20 00:53 Calm 10 Clear CLR 37 30     76%     30.36 30.39      
Oct 19 23:53 Calm 10 Clear CLR 38 30     73%     30.35 30.4      
Oct 19 22:53 Calm 10 Clear CLR 43 31     62%     30.35 30.39      
Oct 19 21:53 Calm 10 Clear CLR 46 31     55%     30.34 30.38      
Oct 19 20:53 Calm 10 Clear CLR 46 31     55%     30.33 30.38      
Oct 19 19:53 N 5 10 Clear CLR 48 31     51% 46   30.32 30.38      
Oct 19 18:53 Calm 10 Clear CLR 57 31     37%     30.32 30.35      
Oct 19 17:53 Calm 10 Clear CLR 63 31     30%     30.32 30.35      
Oct 19 16:53 Calm 10 Clear CLR 65 29     26%     30.33 30.34      
Oct 19 15:53 Calm 10 Clear CLR 62 30     30%     30.33 30.35      
Oct 19 14:53 Calm 10 Clear CLR 60 34     37%     30.35 30.37      
Oct 19 13:53 E 3 10 Clear CLR 58 34     40%     30.37 30.39      
Oct 19 12:53 Calm 10 Clear CLR 53 33     46%     30.39 30.42      
Oct 19 11:53 Calm 10 Clear CLR 48 35     61%     30.4 30.44      
Oct 19 10:53 3 10 Clear CLR 42 34     73% 40   30.42 30.47      
Oct 19 09:53 Calm 10 Clear CLR 38 33     82%     30.42 30.47      
Oct 19 08:53 Calm 10 Clear CLR 33 29     85%     30.4 30.46      
Oct 19 07:53 Calm 10 Clear CLR 32 28     85%     30.37 30.43      
Oct 19 06:53 Calm 10 Clear CLR 33 29     85%     30.37 30.4      
Oct 19 05:53 N 3 10 Clear CLR 30 27     88% 27   30.34 30.37      
Oct 19 04:53 Calm 10 Clear CLR 34 29     82%     30.33 30.35      
Oct 19 03:53 Calm 10 Clear CLR 35 30     82%     30.31 30.33      
Oct 19 02:53 Calm 10 Clear CLR 36 31     82%     30.3 30.33      
Oct 19 01:53 WNW 3 10 Clear   39 31     72% 37   30.29 30.32      
Oct 19 00:53 Calm 10 Clear CLR 39 32     76%     30.26 30.3      
Oct 18 23:53 Calm 10 Clear CLR 41 33     73%     30.26 30.3      
Oct 18 22:53 Calm 10 Clear CLR 41 33     73%     30.23 30.28      
Oct 18 21:53 W 5 10 Clear CLR 45 33     63% 43   30.21 30.27      
Oct 18 20:53 Calm 10 Clear CLR 45 34     65%     30.19 30.25      
Oct 18 19:53 WNW 3 10 Clear CLR 48 35     61% 47   30.18 30.24      
Oct 18 18:53 Calm 10 Clear CLR 57 35     44%     30.16 30.19      
Oct 18 17:53 Calm 10 Clear CLR 61 35     38%     30.14 30.17      
Oct 18 16:53 Calm 10 Clear CLR 62 34     35%     30.14 30.17      
Oct 18 15:53 SE 3 10 Clear CLR 60 34     37%     30.16 30.19      
Oct 18 14:53 Calm 10 Clear CLR 57 34     42%     30.18 30.21      
Oct 18 13:53 Calm 10 Clear CLR 54 35     49%     30.2 30.23      
Oct 18 12:53 Calm 10 Clear CLR 49 34     56%     30.22 30.26      
Oct 18 11:53 Calm 10 Clear CLR 45 34     65%     30.24 30.29      
Oct 18 10:53 Calm 10 Clear CLR 39 33     79%     30.26 30.32      
Oct 18 09:53 W 3 10 Clear CLR 34 31     88% 31   30.27 30.34      
Oct 18 08:53 Calm 10 Clear CLR 29 26     89%     30.27 30.33      
Oct 18 08:23 Calm 10 Mostly Clear FEW002 26 24     92%     30.26        
Oct 18 08:16 Calm 1 Fog/Mist VV002 27 24     89%     30.26        
May 14 10:53 S 3 10 Clear CLR 58 42     55%     30.13 30.11      
May 14 06:53 SSE 3 10 Clear CLR 42 37     82% 40   30.14 30.14      
May 12 22:53 Calm 10 Clear CLR 52 38     59%     29.97 29.97      
May 12 18:53 N 9 10 Clear CLR 67 38     34%     29.93 29.93      
May 11 17:53   10 Mostly Clear FEW060 55 44     66%     30.05 30.06     0
Jun 11 20:53   10 Clear   64 35     34%     29.82 29.8      
Jun 11 14:53 W 5 10 Clear CLR 65 28     25%     29.89 29.9      
Jun 10 12:13 5 6 Light Rain FEW035 BKN043 OVC055 52 41     66%     29.75   0    
Jun 10 08:53 S 7 10 Clear CLR 51 41     68%     29.75 29.74      
Jun 09 13:53 7 10 Light Rain FEW026 SCT037 BKN047 57 48     72%     29.8 29.79 0    
Jun 08 21:53   10 Mostly Clear FEW120 64 51     63%     29.75 29.7      
Jun 07 23:53 E 10 10 Clear CLR 70 54     57%     29.84 29.77      
Jun 07 09:53 Calm 10 Clear CLR 66 52     61%     29.99 29.94      
Jun 06 01:53 N 5 10 Clear CLR 47 41     80% 45   30.17 30.15